Temp
79 78 77 77 76 77 76 76 76 76 76 76 76 74 72 71 77 77 76 78 76 76 75 75 75 75 75 75 75 74 74 74 74
78 78 78 78 77 76 76 76 76 75 76 77 75 73 70 76 76 76 77 78 76 76 76 75 75 75 74 74 74 74 74 74 74
78 77 77 78 78 76 76 76 75 75 75 75 74 71 70 74 76 76 77 76 76 76 75 75 74 74 74 74 74 74 74 74 73
77 77 77 76 76 76 75 75 75 75 75 74 72 70 68 77 76 76 77 74 76 75 75 74 74 74 74 73 73 73 73 73 73
74 74 75 75 75 75 75 75 75 75 74 73 71 69 68 76 74 76 77 74 76 75 75 74 74 74 73 73 72 72 72 72 72
76 73 72 73 74 74 74 74 74 72 71 71 70 68 76 76 75 76 70 74 76 75 74 74 74 73 73 72 72 72 72 72 71
77 72 70 72 72 72 73 73 72 71 76 76 70 76 76 76 76 76 70 74 76 76 74 74 74 73 73 72 72 72 72 71 71
76 76 75 76 70 76 74 74 75 73 74 73 74 74 75 76 76 74 69 73 76 76 75 74 74 73 73 73 73 72 72 71 71
76 76 75 75 73 74 74 74 74 72 72 74 74 74 74 74 74 74 67 71 75 76 76 75 74 74 74 74 73 73 72 72 71
75 76 75 74 73 72 70 73 73 72 72 72 73 74 74 74 73 74 64 67 72 74 76 76 75 75 75 75 75 73 73 72 71
73 73 73 73 73 71 71 71 72 72 72 71 72 73 74 74 74 74 74 66 69 72 74 76 76 76 76 76 75 74 74 72 71
72 72 73 74 73 71 69 70 70 71 71 71 72 72 73 74 75 74 75 74 65 68 73 75 75 76 76 76 75 74 73 72 71
72 69 68 71 73 71 67 67 67 70 70 70 71 72 72 74 75 74 74 73 74 69 68 71 73 74 75 75 75 74 72 71 71
72 72 71 69 68 67 66 65 70 67 67 68 70 71 71 73 74 74 74 74 73 73 68 66 68 70 72 74 74 75 72 71 70
71 71 71 68 67 65 65 66 65 70 70 69 69 70 71 71 72 73 74 72 70 72 72 71 72 65 69 71 73 74 72 71 70
70 69 69 68 65 66 65 64 63 62 66 66 67 68 70 71 70 71 71 73 71 70 73 73 73 72 66 68 70 72 72 71 70
69 68 67 67 65 65 64 64 63 64 64 64 63 62 68 69 71 71 69 71 69 66 71 71 70 71 72 71 68 70 71 71 70
69 69 67 67 66 65 65 64 63 62 61 66 65 60 60 65 66 67 68 68 65 65 68 69 68 69 69 67 66 65 68 69 69
68 68 67 66 65 66 64 64 63 63 60 61 65 64 64 61 61 63 64 64 64 65 67 67 67 66 66 63 61 61 63 67 69
67 67 66 65 64 65 66 63 63 62 62 62 60 63 63 62 60 59 59 59 61 63 65 66 65 65 64 61 61 61 63 67 68
MSLP
1017.40 1017.54 1017.73 1017.96 1018.25 1018.49 1018.75 1018.89 1019.08 1019.22 1019.15 1019.15 1019.41 1019.62 1019.96 1020.11 1020.14 1020.24 1020.33 1020.20 1020.34 1020.39 1020.50 1020.57 1020.59 1020.54 1020.47 1020.42 1020.41 1020.34 1020.25 1020.25 1020.22
1017.45 1017.61 1017.77 1017.86 1018.29 1018.67 1018.96 1019.11 1019.15 1019.31 1019.31 1019.20 1019.44 1019.78 1019.97 1020.03 1020.21 1020.26 1020.31 1020.21 1020.36 1020.47 1020.58 1020.62 1020.66 1020.69 1020.70 1020.69 1020.66 1020.62 1020.53 1020.48 1020.46
1017.51 1017.64 1017.86 1018.12 1018.41 1018.70 1018.96 1019.21 1019.26 1019.25 1019.40 1019.48 1019.68 1019.93 1020.13 1020.17 1020.20 1020.36 1020.34 1020.37 1020.40 1020.55 1020.69 1020.76 1020.82 1020.91 1020.95 1020.93 1020.88 1020.81 1020.75 1020.71 1020.75
1017.54 1017.84 1018.10 1018.36 1018.63 1018.85 1018.92 1019.16 1019.33 1019.39 1019.42 1019.64 1019.79 1019.97 1020.16 1020.19 1020.30 1020.36 1020.40 1020.56 1020.48 1020.61 1020.78 1020.88 1020.97 1021.02 1021.03 1021.02 1021.00 1020.98 1020.92 1020.89 1020.81
1017.67 1017.96 1018.24 1018.55 1018.79 1018.90 1019.05 1019.16 1019.28 1019.47 1019.55 1019.71 1019.91 1020.10 1020.30 1020.22 1020.47 1020.45 1020.41 1020.62 1020.58 1020.63 1020.71 1020.85 1020.93 1021.06 1021.10 1021.08 1021.07 1021.06 1021.04 1020.88 1020.83
1017.34 1017.78 1018.23 1018.51 1018.83 1019.10 1019.15 1019.21 1019.24 1019.39 1019.66 1019.75 1019.90 1020.14 1020.00 1020.14 1020.34 1020.43 1020.58 1020.53 1020.55 1020.62 1020.69 1020.78 1020.86 1020.96 1021.06 1021.07 1021.04 1021.04 1020.97 1021.03 1020.98
1017.11 1017.32 1017.83 1018.31 1018.69 1019.07 1019.26 1019.31 1019.43 1019.47 1019.44 1019.67 1019.97 1019.83 1019.97 1019.99 1020.01 1020.24 1020.48 1020.44 1020.38 1020.52 1020.60 1020.65 1020.73 1020.78 1020.86 1020.92 1021.01 1021.06 1021.07 1020.97 1020.97
1017.12 1017.36 1017.61 1017.78 1018.51 1018.76 1019.17 1019.34 1019.40 1019.47 1019.42 1019.50 1019.68 1019.77 1019.84 1019.91 1019.94 1019.97 1020.28 1020.27 1020.15 1020.26 1020.44 1020.50 1020.55 1020.62 1020.65 1020.68 1020.76 1020.84 1020.86 1020.90 1020.83
1016.60 1017.02 1017.16 1017.51 1017.80 1018.36 1018.69 1019.01 1019.16 1019.44 1019.52 1019.43 1019.38 1019.53 1019.61 1019.71 1019.81 1019.78 1020.05 1020.09 1020.06 1020.01 1020.15 1020.26 1020.31 1020.29 1020.34 1020.37 1020.45 1020.53 1020.70 1020.72 1020.66
1016.33 1016.47 1016.85 1016.88 1017.34 1017.65 1018.34 1018.59 1018.85 1019.14 1019.31 1019.45 1019.33 1019.23 1019.40 1019.51 1019.59 1019.53 1019.68 1019.82 1019.83 1019.82 1019.79 1019.81 1019.89 1019.95 1019.96 1019.98 1020.02 1020.12 1020.31 1020.55 1020.53
1016.26 1016.19 1016.37 1016.58 1016.83 1017.33 1017.55 1018.11 1018.51 1018.83 1019.03 1019.19 1019.25 1019.03 1019.02 1019.24 1019.26 1019.22 1019.14 1019.39 1019.53 1019.59 1019.63 1019.54 1019.47 1019.45 1019.48 1019.54 1019.63 1019.63 1019.84 1020.19 1020.48
1016.02 1016.07 1016.11 1015.99 1016.29 1016.83 1017.38 1017.78 1018.27 1018.65 1018.85 1018.90 1018.88 1018.91 1018.74 1018.76 1018.79 1018.84 1018.86 1018.88 1019.19 1019.28 1019.34 1019.32 1019.23 1019.17 1019.15 1019.19 1019.34 1019.39 1019.58 1019.93 1020.35
1015.59 1015.88 1015.92 1015.93 1016.10 1016.30 1016.83 1017.42 1017.88 1018.16 1018.50 1018.52 1018.50 1018.52 1018.59 1018.37 1018.33 1018.44 1018.45 1018.55 1018.57 1018.77 1018.96 1019.07 1019.03 1018.99 1019.04 1019.07 1019.06 1019.16 1019.33 1019.65 1020.09
1015.24 1015.15 1015.26 1015.69 1015.88 1016.15 1016.43 1016.91 1017.14 1017.58 1017.95 1018.14 1018.14 1018.10 1018.01 1018.03 1017.94 1017.84 1017.89 1017.94 1018.11 1018.16 1018.30 1018.48 1018.58 1018.70 1018.79 1018.86 1018.84 1018.88 1019.17 1019.45 1019.81
1014.79 1014.79 1014.82 1015.11 1015.59 1015.69 1016.00 1016.20 1016.83 1017.00 1017.28 1017.75 1017.72 1017.62 1017.50 1017.42 1017.44 1017.35 1017.38 1017.45 1017.63 1017.74 1017.86 1018.10 1018.18 1018.39 1018.54 1018.56 1018.59 1018.48 1018.73 1019.17 1019.36
1014.07 1014.17 1014.39 1014.43 1014.80 1015.02 1015.40 1015.55 1016.18 1016.40 1017.07 1017.67 1017.54 1017.23 1017.02 1016.86 1016.78 1016.71 1016.87 1016.78 1017.09 1017.39 1017.46 1017.63 1017.77 1018.13 1018.20 1018.17 1018.14 1018.16 1018.42 1018.86 1019.23
1013.23 1013.45 1013.67 1013.81 1013.98 1014.27 1014.75 1014.65 1015.07 1015.52 1016.16 1016.84 1017.42 1016.80 1016.02 1015.94 1015.78 1016.05 1016.32 1016.43 1016.58 1016.92 1017.00 1017.25 1017.44 1017.86 1017.81 1017.68 1017.67 1017.81 1018.07 1018.45 1018.92
1012.37 1012.09 1012.53 1012.83 1012.99 1013.19 1013.61 1014.30 1014.92 1014.92 1015.65 1015.98 1016.15 1016.63 1015.69 1015.58 1015.41 1015.43 1015.74 1015.95 1016.20 1016.30 1016.60 1016.79 1017.22 1017.58 1017.66 1017.82 1017.81 1017.99 1018.12 1018.37 1018.57
1011.22 1010.97 1011.30 1011.72 1011.90 1012.23 1012.67 1013.19 1013.91 1014.39 1014.80 1015.53 1015.71 1015.77 1015.66 1015.49 1015.39 1015.42 1015.44 1015.75 1015.89 1015.98 1016.22 1016.39 1016.94 1017.19 1017.45 1017.83 1017.90 1017.86 1018.16 1018.06 1018.09
1010.09 1010.17 1010.30 1010.58 1011.01 1011.42 1011.86 1012.49 1013.53 1013.80 1014.14 1014.23 1014.99 1015.32 1015.56 1015.49 1015.54 1015.21 1015.32 1015.55 1015.36 1015.23 1015.74 1015.92 1016.47 1016.85 1017.02 1017.44 1017.60 1017.67 1017.80 1017.78 1017.88
Wind_Speed
13 10 10 12 15 13 12 13 11 9 9 13 13 13 11 8 7 6 7 6 9 10 9 9 9 9 9 9 10 10 10 10 10
12 11 10 11 12 13 12 12 11 9 8 14 14 11 10 7 6 6 6 6 9 9 9 8 8 8 8 8 9 9 9 10 10
11 10 10 12 14 14 13 11 10 10 11 13 12 11 8 6 7 6 5 6 8 8 8 7 7 7 7 8 8 9 9 9 10
11 12 12 12 13 12 12 12 10 9 10 11 11 10 9 6 5 6 4 5 8 8 7 7 6 6 6 6 7 7 8 8 8
11 11 12 13 12 12 11 12 11 9 9 9 9 9 9 6 5 4 4 5 7 7 7 6 6 5 5 5 5 5 6 6 6
15 12 11 12 12 12 11 11 11 9 8 8 9 9 4 5 4 3 5 6 7 7 7 6 6 5 4 3 3 4 4 4 4
12 13 13 12 12 11 11 11 9 9 6 5 6 5 5 4 4 4 7 8 8 8 7 7 6 6 5 5 4 3 3 3 2
9 7 8 9 10 8 9 9 7 8 6 5 4 4 5 4 4 5 8 10 10 9 9 8 8 7 7 7 6 5 5 4 2
9 8 10 9 7 10 9 7 8 8 7 7 7 7 6 4 3 5 9 10 11 10 10 11 10 10 10 9 9 8 7 6 4
9 10 9 8 8 9 7 9 8 9 8 7 8 8 8 7 4 4 8 10 12 12 12 12 10 11 11 11 10 11 11 8 6
9 9 10 9 10 8 8 9 8 8 7 8 8 8 8 8 7 5 6 11 10 12 13 12 11 10 10 8 6 8 9 10 8
10 8 9 10 11 11 8 9 7 7 6 9 8 8 9 8 9 7 6 6 10 12 14 13 12 11 10 9 7 5 11 11 9
11 7 7 8 9 8 8 7 7 8 8 7 7 7 8 9 10 8 7 7 6 9 12 11 12 12 12 10 9 7 12 12 9
11 9 9 7 7 8 8 6 9 8 7 8 8 8 8 9 8 11 10 10 8 6 9 13 12 10 10 11 10 11 14 12 10
12 9 11 7 7 7 7 10 7 7 8 7 8 8 8 8 9 9 8 8 9 9 9 6 8 9 9 11 11 12 16 14 12
13 10 10 10 10 12 13 10 7 6 5 4 8 9 10 11 9 8 8 9 8 8 9 6 5 6 10 11 13 14 15 13 11
14 13 12 13 11 13 11 12 8 6 7 6 4 6 6 9 10 8 7 10 6 6 10 9 8 6 5 7 10 14 15 13 11
17 17 15 15 14 12 14 12 12 8 5 11 6 5 7 2 3 8 7 8 6 5 8 9 8 7 5 6 8 9 10 11 10
19 19 18 17 12 13 11 10 8 8 7 3 9 6 2 4 3 2 4 5 7 8 7 8 8 8 6 6 6 11 10 12 11
17 17 17 15 10 14 13 10 11 9 8 7 3 10 7 4 4 3 3 3 6 6 8 8 7 9 9 7 7 11 12 13 11
Wind_Direction
172 168 157 151 130 133 134 138 140 141 148 149 138 133 121 123 113 112 111 107 108 104 98 91 83 80 79 76 73 69 67 62 58
169 163 174 144 144 147 155 151 148 142 147 145 144 138 132 134 129 130 130 125 119 112 106 99 95 88 83 78 73 70 65 59 55
175 153 159 172 171 161 168 165 161 149 154 147 145 141 140 147 141 142 142 131 128 119 113 107 99 90 84 80 77 71 65 57 50
166 162 160 158 167 174 176 175 173 160 159 155 153 149 145 152 151 154 154 159 139 131 124 116 105 102 97 90 83 78 72 65 58
172 166 167 171 181 183 187 184 178 172 160 162 157 150 147 155 162 172 164 198 154 146 142 135 128 121 115 102 93 86 81 80 69
177 177 175 177 184 193 192 191 181 170 169 167 172 162 170 167 179 189 196 209 176 168 164 158 152 148 147 141 131 118 109 86 70
188 178 177 182 185 193 198 195 185 177 182 183 165 195 187 195 189 202 209 214 198 192 188 187 184 181 186 190 175 165 156 126 90
189 190 188 187 188 196 200 199 202 196 192 188 194 196 198 215 216 210 217 218 217 207 208 209 207 206 212 216 211 206 198 196 208
195 198 191 191 183 199 201 206 204 206 207 206 204 208 213 215 222 225 225 225 230 225 220 224 220 222 225 232 229 220 217 210 231
200 200 199 190 189 193 198 206 206 213 210 215 217 217 228 231 227 230 213 228 230 239 239 238 233 231 233 236 237 232 212 211 205
211 208 202 197 194 199 189 199 211 219 215 222 226 225 226 238 239 236 229 224 231 237 247 249 237 230 237 242 239 250 203 195 194
220 220 214 207 198 191 197 200 202 216 222 234 233 237 234 234 240 235 235 225 224 232 238 246 250 242 245 246 248 254 180 186 192
228 221 223 220 209 192 190 189 194 211 223 233 235 242 245 243 242 240 235 229 231 222 230 236 247 250 250 247 246 227 190 184 182
231 222 218 226 203 198 192 192 203 205 216 233 245 245 244 251 246 239 236 231 229 226 219 219 226 236 238 245 249 239 194 181 182
235 232 227 188 195 201 191 199 200 210 226 237 248 249 246 246 243 245 243 236 227 227 226 222 229 217 227 239 243 234 182 184 184
229 228 222 201 199 208 203 187 198 198 190 240 259 258 254 249 238 234 240 240 233 228 224 216 213 216 222 231 236 224 179 185 187
226 224 226 219 204 199 197 205 184 207 177 206 240 270 239 234 230 226 225 234 214 205 215 207 202 217 220 219 195 166 179 181 192
230 227 226 223 215 211 196 195 211 196 177 201 192 214 233 263 190 221 219 217 205 193 203 200 196 204 200 179 145 144 159 183 201
233 235 228 220 209 204 190 181 204 205 192 182 224 235 261 224 256 217 216 214 219 201 199 201 202 193 185 191 178 162 177 196 211
235 235 227 209 205 204 201 195 210 206 211 197 152 224 233 232 235 236 206 220 209 197 207 201 199 203 190 183 187 180 190 203 206